This is the latest recevied weather packets stored in our database for station/object KN4FVH. If no packets are shown the sender has not sent any weather packets the latest 1 day(s).
| Time | Temp. | Humidity | Pressure | Rain* | Wind** | Luminosity | Snow |
|---|---|---|---|---|---|---|---|
| 1778013340 | 25.56° C | 42% | 1015.8 hPa | 0 mm | 0.89 m/s, 190° | 10 W/m² | - |
| 1778013038 | 25.56° C | 43% | 1015.7 hPa | 0 mm | 0.45 m/s, 161° | 10 W/m² | - |
| 1778012734 | 25.56° C | 44% | 1016 hPa | 0 mm | 0.45 m/s, 158° | 11 W/m² | - |
| 1778012430 | 25.56° C | 44% | 1016 hPa | 0 mm | 0.45 m/s, 142° | 14 W/m² | - |
| 1778012127 | 26.11° C | 44% | 1016.1 hPa | 0 mm | 0.45 m/s, 161° | 16 W/m² | - |
| 1778011825 | 26.11° C | 44% | 1016 hPa | 0 mm | 0.89 m/s, 175° | 13 W/m² | - |
| 1778011522 | 26.11° C | 43% | 1015.9 hPa | 0 mm | 0.45 m/s, 167° | 17 W/m² | - |
| 1778011219 | 26.11° C | 44% | 1016.2 hPa | 0 mm | 0 m/s | 18 W/m² | - |
| 1778010915 | 26.11° C | 43% | 1016.2 hPa | 0 mm | 0.45 m/s, 164° | 21 W/m² | - |
| 1778010613 | 26.11° C | 43% | 1016.4 hPa | 0 mm | 0.89 m/s, 197° | 17 W/m² | - |
| 1778010304 | 26.11° C | 45% | 1016.4 hPa | 0 mm | 0.45 m/s, 162° | 22 W/m² | - |
| 1778010005 | 26.11° C | 44% | 1016.7 hPa | 0 mm | 0.45 m/s, 171° | 23 W/m² | - |
| 1778009702 | 25.56° C | 45% | 1016.6 hPa | 0 mm | 0.45 m/s, 181° | 27 W/m² | - |
| 1778009399 | 26.11° C | 44% | 1016.7 hPa | 0 mm | 0.89 m/s, 167° | 43 W/m² | - |
| 1778009097 | 26.11° C | 44% | 1017 hPa | 0 mm | 0 m/s | 49 W/m² | - |
| 1778008795 | 26.67° C | 43% | 1016.9 hPa | 0 mm | 0 m/s | 96 W/m² | - |
| 1778008493 | 26.67° C | 43% | 1016.7 hPa | 0 mm | 0.45 m/s, 175° | 65 W/m² | - |
| 1778008189 | 26.11° C | 46% | 1017.2 hPa | 0 mm | 0 m/s | 33 W/m² | - |
| 1778007884 | 26.11° C | 43% | 1017.4 hPa | 0 mm | 0.45 m/s, 179° | 62 W/m² | - |
| 1778007580 | 26.11° C | 45% | 1016.9 hPa | 0 mm | 0.89 m/s, 170° | 36 W/m² | - |
| 1778007279 | 26.11° C | 45% | 1017.4 hPa | 0 mm | 0.45 m/s, 159° | 46 W/m² | - |
| 1778006974 | 26.11° C | 43% | 1017.4 hPa | 0 mm | 0.45 m/s, 184° | 44 W/m² | - |
| 1778006671 | 25.56° C | 45% | 1017.3 hPa | 0 mm | 0 m/s | 36 W/m² | - |
| 1778006367 | 25.56° C | 45% | 1017.3 hPa | 0 mm | 0.45 m/s, 196° | 37 W/m² | - |
| 1778006065 | 26.11° C | 44% | 1017.4 hPa | 0 mm | 0 m/s | 36 W/m² | - |
* Rain latest hour (hover to see other rain measurements)
** Current wind speed in m/s (hover to see current wind gust speed)